Location: Asheville, NC
(35.6000°N, 82.5500°W)
Time: 13:10:59
(UTC-05:00)

Vanguard 2 Rocket - Pass Details

Date: 18 February 2018
Orbit: 555 x 3327 km, 32.9° (Epoch: 21 February)

Event Time Altitude Azimuth Distance (km) Brightness Sun altitude
Rises 20:25:52 0° 185° (S) 4,297 10.4 -27.2°
Reaches altitude 10° 20:29:46 10° 166° (SSE) 3,778 9.8 -28.0°
Enters shadow 20:31:07 13° 158° (SSE) 3,698 9.7 -28.3°
Maximum altitude 20:35:58 18° 128° (SE) 3,863 - -29.2°
Drops below altitude 10° 20:44:07 10° 94° (E) 5,220 - -30.9°
Sets 20:51:06 0° 79° (ENE) 6,745 - -32.3°
